Flag for Mexico Weather past 2 weeks in Playa del Carmen, Quintana Roo, Mexico

Now
84 °F

Partly sunny.


Feels Like: 94 °F
Forecast: 81 / 90 °F
Wind: 14 mph from Northeast

Location: Cozumel Civ / Mil

Current Time: Jul 24, 2014 at 12:43:35 PM

Latest Report: Jul 24, 2014 at 11:40 AM


Visibility: 8 mi

Pressure: 30.03 "Hg

Humidity: 79%

Dew point: 77 °F

Location of Playa del CarmenLocation

Historic Weather in Playa del Carmen — Graph

°F

Playa del Carmen temperature yesterday

Maximum temperature yesterday: 90 °F (at 2:44 PM)
Minimum temperature yesterday: 73 °F (at 2:44 AM)
Average temperature yesterday: 80 °F

Past Weeks' High & Low Weather Summary

 TemperatureHumidityPressure
High90 °F (Jul 19, 2:42 PM)100% (Jul 9, 10:51 PM)30.11 "Hg (Jul 9, 10:51 PM)
Low70 °F (Jul 12, 5:44 AM)49% (Jul 23, 2:44 PM)29.96 "Hg (Jul 21, 5:46 AM)
Average80 °F87%30.02 "Hg
* Reported Jul 9 11:44 AM — Jul 24 11:40 AM, Playa del Carmen, Weather by CustomWeather, © 2014

Note: Actual official high and low records may vary slightly from our data, if they occured in-between our weather recording intervals... More about our weather records

Advertising

Playa del Carmen weather history for previous 24 hours

 ConditionsComfort  
Time TempWeatherWind HumidityBarometerVisibility
11:40 AM
Jul 24
84 °FPartly sunny.14 mph79%30.03 "Hg8 mi
10:44 AM84 °FPartly sunny.10 mph74%30.04 "Hg8 mi
9:42 AM82 °FPartly sunny.9 mph84%30.06 "Hg8 mi
8:41 AM81 °FScattered clouds.6 mph89%30.02 "Hg8 mi
7:45 AM79 °FPassing clouds.3 mph94%30.01 "Hg8 mi
6:42 AM72 °FPassing clouds.No wind100%29.98 "Hg8 mi
5:42 AM72 °FClear.No wind100%29.98 "Hg7 mi
4:42 AM72 °FClear.No wind100%29.98 "Hg7 mi
3:40 AM72 °FClear.No wind100%30.01 "Hg7 mi
2:45 AM73 °FClear.No wind100%29.98 "Hg7 mi
1:49 AM75 °FClear.No wind100%29.99 "Hg7 mi
12:51 AM75 °FClear.3 mph100%29.99 "Hg7 mi
11:50 PM
Jul 23
75 °FClear.3 mph100%30.02 "Hg7 mi
10:42 PM77 °FPassing clouds.5 mph94%30.02 "Hg7 mi
9:43 PM77 °FPassing clouds.6 mph94%30.04 "Hg7 mi
8:42 PM77 °FPassing clouds.No wind89%30.02 "Hg7 mi
7:46 PM79 °FPartly sunny.No wind89%30.02 "Hg7 mi
6:40 PM82 °FPartly sunny.6 mph74%29.98 "Hg8 mi
5:42 PM84 °FPartly sunny.7 mph70%29.99 "Hg8 mi
4:50 PM84 °FScattered clouds.9 mph66%29.99 "Hg8 mi
3:47 PM90 °FPassing clouds.10 mph52%30.01 "Hg8 mi
2:44 PM90 °FPassing clouds.3 mph49%30.00 "Hg8 mi
1:52 PM86 °FBroken clouds.No wind70%30.02 "Hg8 mi
12:48 PM84 °FBroken clouds.7 mph79%30.03 "Hg8 mi
Weather by CustomWeather, © 2014

See weather overviewHow to use our weather pages